Tracking 30009 objects as of 7-Dec-2024
HD Live streaming from Space Station
objects crossing your sky now

METEOSAT 4 AKM

Track METEOSAT 4 AKM now!


NORAD ID: 20800
Int'l Code: 1989-020E
Perigee: 35,188.9 km
Apogee: 36,297.3 km
Inclination: 11.7 °
Period: 1,433.5 minutes
Semi major axis: 42114 km
RCS: 1 m2 (large)
Launch date: March 6, 1989
Source: European Space Agency (ESA)
Launch site: FRENCH GUIANA (FRGUI)

Note: This is a ROCKET BODY
Your satellite tracking list
Your tracking list is empty




NASA's NSSDC Master Catalog

Two Line Element Set (TLE):
1 20800U 89020E   24341.89493939 -.00000394  00000-0  00000-0 0  9994
2 20800  11.6582 334.7531 0131594 242.3254 297.2816  1.00452872110608
Source of the keplerian elements: AFSPC